Location: Unspecified
(43.4354°N, 0.0000°E)
Time: 16:57:52
(UTC+00:00)

Vanguard 2 Rocket - Pass Details

Date: 27 June 2019
Orbit: 553 x 3327 km, 32.9° (Epoch: 16 August)

Event Time Altitude Azimuth Distance (km) Brightness Sun altitude
Rises 22:08:46 0° 254° (WSW) 3,765 10.2 -18.3°
Reaches altitude 10° 22:11:04 10° 247° (WSW) 3,071 9.6 -18.5°
Maximum altitude 22:18:29 46° 177° (S) 2,129 8.3 -19.1°
Drops below altitude 10° 22:31:17 10° 110° (ESE) 5,192 10.3 -20.0°
Sets 22:36:27 0° 106° (ESE) 6,600 10.9 -20.4°
